Wetterdaten: Samstag, 08.08.2015
Datum Zeit Auen-Temp. Temp gefhlt Luftfeuchte Luftdruck Regen Wind Richtung Richtung Taupunkt Windben
08.08.2015 00:00 18,8 C 18,6 C 72 % 1012,8 hPa 0,0 mm 0,0 km/h (0 Bft) N-NW 337 13,6 C 0,0 km/h (0 Bft)
08.08.2015 00:05 18,8 C 18,6 C 72 % 1012,8 hPa 0,0 mm 0,0 km/h (0 Bft) N-NO 22 13,6 C 0,0 km/h (0 Bft)
08.08.2015 00:10 18,5 C 18,4 C 72 % 1012,8 hPa 0,0 mm 0,0 km/h (0 Bft) NO 45 13,4 C 0,0 km/h (0 Bft)
08.08.2015 00:15 18,6 C 18,4 C 73 % 1012,9 hPa 0,0 mm 0,0 km/h (0 Bft) O 90 13,7 C 0,0 km/h (0 Bft)
08.08.2015 00:20 18,6 C 18,4 C 73 % 1012,9 hPa 0,0 mm 0,0 km/h (0 Bft) NW 315 13,7 C 0,0 km/h (0 Bft)
08.08.2015 00:25 18,8 C 18,6 C 73 % 1012,9 hPa 0,0 mm 0,5 km/h (0 Bft) NW 315 13,9 C 0,0 km/h (0 Bft)
08.08.2015 00:30 18,8 C 18,7 C 72 % 1012,9 hPa 0,0 mm 0,5 km/h (0 Bft) W 270 13,6 C 0,0 km/h (0 Bft)
08.08.2015 00:35 18,6 C 18,5 C 72 % 1013,0 hPa 0,0 mm 0,0 km/h (0 Bft) W 270 13,4 C 0,0 km/h (0 Bft)
08.08.2015 00:40 18,2 C 18,2 C 72 % 1013,0 hPa 0,0 mm 0,0 km/h (0 Bft) N-NO 22 13,1 C 0,0 km/h (0 Bft)
08.08.2015 00:45 18,1 C 18,1 C 72 % 1013,0 hPa 0,0 mm 0,0 km/h (0 Bft) O-NO 67 13,0 C 0,0 km/h (0 Bft)
08.08.2015 00:50 17,9 C 17,9 C 73 % 1013,0 hPa 0,0 mm 0,0 km/h (0 Bft) NO 45 13,0 C 0,0 km/h (0 Bft)
08.08.2015 00:55 17,9 C 17,8 C 73 % 1012,8 hPa 0,0 mm 0,0 km/h (0 Bft) O-NO 67 13,0 C 0,0 km/h (0 Bft)
08.08.2015 01:00 17,8 C 17,7 C 74 % 1012,8 hPa 0,0 mm 0,0 km/h (0 Bft) NO 45 13,1 C 0,0 km/h (0 Bft)
08.08.2015 01:05 17,6 C 17,5 C 74 % 1012,8 hPa 0,0 mm 0,3 km/h (0 Bft) S 180 12,9 C 7,8 km/h (2 Bft)
08.08.2015 01:10 18,0 C 17,9 C 74 % 1012,8 hPa 0,0 mm 0,8 km/h (0 Bft) S 180 13,3 C 3,6 km/h (1 Bft)
08.08.2015 01:15 19,1 C 18,8 C 74 % 1013,0 hPa 0,0 mm 2,8 km/h (1 Bft) SO 135 14,4 C 9,3 km/h (2 Bft)
08.08.2015 01:20 19,5 C 19,3 C 72 % 1013,0 hPa 0,0 mm 4,4 km/h (1 Bft) S-SO 157 14,3 C 13,2 km/h (3 Bft)
08.08.2015 01:25 19,6 C 19,6 C 70 % 1013,0 hPa 0,0 mm 3,6 km/h (1 Bft) SO 135 14,0 C 4,4 km/h (1 Bft)
08.08.2015 01:30 19,7 C 19,7 C 70 % 1013,0 hPa 0,0 mm 2,3 km/h (1 Bft) S 180 14,1 C 3,4 km/h (1 Bft)
08.08.2015 01:35 19,5 C 19,6 C 69 % 1012,9 hPa 0,0 mm 3,1 km/h (1 Bft) S-SW 202 13,7 C 4,1 km/h (1 Bft)
08.08.2015 01:40 19,2 C 19,5 C 70 % 1012,9 hPa 0,0 mm 1,8 km/h (1 Bft) S-SO 157 13,6 C 0,0 km/h (0 Bft)
08.08.2015 01:45 19,2 C 19,4 C 69 % 1012,9 hPa 0,0 mm 1,6 km/h (1 Bft) S-SO 157 13,4 C 0,0 km/h (0 Bft)
08.08.2015 01:50 18,8 C 19,1 C 70 % 1012,9 hPa 0,0 mm 1,8 km/h (1 Bft) S 180 13,2 C 5,4 km/h (1 Bft)
08.08.2015 01:55 18,6 C 18,9 C 70 % 1012,7 hPa 0,0 mm 0,8 km/h (0 Bft) SO 135 13,0 C 0,0 km/h (0 Bft)
08.08.2015 02:00 18,1 C 18,5 C 70 % 1012,7 hPa 0,0 mm 0,5 km/h (0 Bft) SO 135 12,5 C 0,0 km/h (0 Bft)
08.08.2015 02:05 18,0 C 18,2 C 71 % 1012,7 hPa 0,0 mm 0,0 km/h (0 Bft) SO 135 12,7 C 0,0 km/h (0 Bft)
08.08.2015 02:10 17,9 C 17,9 C 72 % 1012,7 hPa 0,0 mm 0,5 km/h (0 Bft) S-SW 202 12,8 C 4,4 km/h (1 Bft)
08.08.2015 02:15 18,9 C 18,6 C 72 % 1012,7 hPa 0,0 mm 1,3 km/h (1 Bft) S 180 13,7 C 3,9 km/h (1 Bft)
08.08.2015 02:20 18,9 C 18,7 C 71 % 1012,7 hPa 0,0 mm 1,3 km/h (1 Bft) S-SO 157 13,5 C 0,0 km/h (0 Bft)
08.08.2015 02:25 18,6 C 18,5 C 70 % 1012,7 hPa 0,0 mm 0,0 km/h (0 Bft) W-SW 247 13,0 C 0,0 km/h (0 Bft)
08.08.2015 02:30 18,0 C 18,1 C 71 % 1012,7 hPa 0,0 mm 0,0 km/h (0 Bft) W-SW 247 12,7 C 0,0 km/h (0 Bft)
08.08.2015 02:35 18,1 C 18,0 C 72 % 1012,4 hPa 0,0 mm 0,0 km/h (0 Bft) SO 135 13,0 C 0,0 km/h (0 Bft)
08.08.2015 02:40 18,2 C 18,1 C 72 % 1012,4 hPa 0,0 mm 0,0 km/h (0 Bft) SO 135 13,1 C 0,0 km/h (0 Bft)
08.08.2015 02:45 18,0 C 17,9 C 72 % 1012,4 hPa 0,0 mm 0,0 km/h (0 Bft) W-SW 247 12,9 C 0,0 km/h (0 Bft)
08.08.2015 02:50 18,0 C 17,8 C 72 % 1012,4 hPa 0,0 mm 0,0 km/h (0 Bft) O-NO 67 12,9 C 0,0 km/h (0 Bft)
08.08.2015 02:55 17,8 C 17,7 C 73 % 1012,5 hPa 0,0 mm 0,0 km/h (0 Bft) SO 135 12,9 C 0,0 km/h (0 Bft)
08.08.2015 03:00 17,7 C 17,5 C 73 % 1012,5 hPa 0,0 mm 0,0 km/h (0 Bft) O-NO 67 12,8 C 0,0 km/h (0 Bft)
08.08.2015 03:05 17,6 C 17,4 C 74 % 1012,5 hPa 0,0 mm 0,0 km/h (0 Bft) O-NO 67 12,9 C 0,0 km/h (0 Bft)
08.08.2015 03:10 17,4 C 17,3 C 74 % 1012,5 hPa 0,0 mm 0,0 km/h (0 Bft) O-NO 67 12,7 C 0,0 km/h (0 Bft)
08.08.2015 03:15 17,4 C 17,3 C 74 % 1012,6 hPa 0,0 mm 0,0 km/h (0 Bft) O-NO 67 12,7 C 0,0 km/h (0 Bft)
08.08.2015 03:16 17,3 C 17,2 C 75 % 1012,6 hPa 0,0 mm 0,0 km/h (0 Bft) O-NO 67 12,8 C 0,0 km/h (0 Bft)
08.08.2015 03:17 17,3 C 17,2 C 75 % 1012,6 hPa 0,0 mm 0,0 km/h (0 Bft) O-NO 67 12,8 C 0,0 km/h (0 Bft)
08.08.2015 03:20 17,3 C 17,2 C 75 % 1012,6 hPa 0,0 mm 0,0 km/h (0 Bft) O-NO 67 12,8 C 0,0 km/h (0 Bft)
08.08.2015 03:25 17,3 C 17,2 C 75 % 1012,6 hPa 0,0 mm 0,0 km/h (0 Bft) NW 315 12,8 C 0,0 km/h (0 Bft)
08.08.2015 03:30 17,4 C 17,3 C 75 % 1012,6 hPa 0,0 mm 0,0 km/h (0 Bft) NW 315 12,9 C 0,0 km/h (0 Bft)
08.08.2015 03:35 17,6 C 17,5 C 76 % 1012,8 hPa 0,0 mm 0,0 km/h (0 Bft) N-NO 22 13,3 C 0,0 km/h (0 Bft)
08.08.2015 03:40 17,7 C 17,9 C 74 % 1012,8 hPa 0,0 mm 0,0 km/h (0 Bft) O-NO 67 13,0 C 0,0 km/h (0 Bft)
08.08.2015 03:45 17,8 C 17,9 C 74 % 1012,8 hPa 0,0 mm 0,0 km/h (0 Bft) O-NO 67 13,1 C 0,0 km/h (0 Bft)
08.08.2015 03:50 17,9 C 18,0 C 74 % 1012,8 hPa 0,0 mm 0,0 km/h (0 Bft) NO 45 13,2 C 0,0 km/h (0 Bft)
08.08.2015 03:55 17,9 C 18,0 C 74 % 1012,9 hPa 0,0 mm 0,0 km/h (0 Bft) O-NO 67 13,2 C 0,0 km/h (0 Bft)
08.08.2015 04:00 18,0 C 18,1 C 75 % 1012,9 hPa 0,0 mm 0,0 km/h (0 Bft) NO 45 13,5 C 0,0 km/h (0 Bft)
08.08.2015 04:05 18,1 C 18,1 C 74 % 1012,9 hPa 0,0 mm 0,0 km/h (0 Bft) O-NO 67 13,4 C 0,0 km/h (0 Bft)
08.08.2015 04:10 18,1 C 18,3 C 74 % 1012,9 hPa 0,0 mm 0,0 km/h (0 Bft) O-NO 67 13,4 C 0,0 km/h (0 Bft)
08.08.2015 04:15 18,0 C 18,3 C 74 % 1013,0 hPa 0,0 mm 0,0 km/h (0 Bft) O-NO 67 13,3 C 0,0 km/h (0 Bft)
08.08.2015 04:20 18,2 C 18,4 C 73 % 1013,0 hPa 0,0 mm 0,0 km/h (0 Bft) O-NO 67 13,3 C 0,0 km/h (0 Bft)
08.08.2015 04:25 18,3 C 18,5 C 73 % 1013,0 hPa 0,0 mm 0,0 km/h (0 Bft) O-NO 67 13,4 C 0,0 km/h (0 Bft)
08.08.2015 04:30 18,6 C 18,5 C 73 % 1013,0 hPa 0,0 mm 0,0 km/h (0 Bft) NO 45 13,7 C 0,0 km/h (0 Bft)
08.08.2015 04:35 18,4 C 18,4 C 73 % 1013,2 hPa 0,0 mm 0,0 km/h (0 Bft) NW 315 13,5 C 0,0 km/h (0 Bft)
08.08.2015 04:40 18,6 C 18,5 C 73 % 1013,2 hPa 0,0 mm 0,3 km/h (0 Bft) W 270 13,7 C 6,5 km/h (2 Bft)
08.08.2015 04:45 18,9 C 18,9 C 72 % 1013,2 hPa 0,0 mm 1,8 km/h (1 Bft) SO 135 13,7 C 6,2 km/h (2 Bft)
08.08.2015 04:50 19,5 C 19,4 C 71 % 1013,2 hPa 0,0 mm 3,1 km/h (1 Bft) N-NO 22 14,1 C 13,7 km/h (3 Bft)
08.08.2015 04:55 19,5 C 19,5 C 70 % 1013,2 hPa 0,0 mm 2,8 km/h (1 Bft) S-SW 202 13,9 C 9,3 km/h (2 Bft)
08.08.2015 05:00 20,4 C 20,3 C 68 % 1013,2 hPa 0,0 mm 6,5 km/h (2 Bft) S 180 14,3 C 15,3 km/h (3 Bft)
08.08.2015 05:05 19,5 C 20,2 C 68 % 1013,2 hPa 0,0 mm 6,0 km/h (2 Bft) NO 45 13,4 C 0,0 km/h (0 Bft)
08.08.2015 05:10 18,8 C 19,5 C 69 % 1013,2 hPa 0,0 mm 0,8 km/h (0 Bft) N 360 13,0 C 0,0 km/h (0 Bft)
08.08.2015 05:15 18,7 C 19,1 C 70 % 1013,4 hPa 0,0 mm 0,3 km/h (0 Bft) SO 135 13,1 C 3,1 km/h (1 Bft)
08.08.2015 05:20 19,1 C 19,0 C 69 % 1013,4 hPa 0,0 mm 0,3 km/h (0 Bft) O-NO 67 13,3 C 0,0 km/h (0 Bft)
08.08.2015 05:25 18,6 C 18,8 C 70 % 1013,4 hPa 0,0 mm 0,3 km/h (0 Bft) S 180 13,0 C 0,0 km/h (0 Bft)
08.08.2015 05:30 18,9 C 18,8 C 70 % 1013,4 hPa 0,0 mm 0,0 km/h (0 Bft) O-SO 112 13,3 C 0,0 km/h (0 Bft)
08.08.2015 05:35 18,9 C 18,8 C 70 % 1013,5 hPa 0,0 mm 0,3 km/h (0 Bft) N-NW 337 13,3 C 0,0 km/h (0 Bft)
08.08.2015 05:40 18,7 C 18,9 C 70 % 1013,5 hPa 0,0 mm 0,3 km/h (0 Bft) O-NO 67 13,1 C 0,0 km/h (0 Bft)
08.08.2015 05:45 18,8 C 18,9 C 70 % 1013,5 hPa 0,0 mm 0,5 km/h (0 Bft) W-SW 247 13,2 C 9,1 km/h (2 Bft)
08.08.2015 05:50 19,9 C 19,9 C 69 % 1013,5 hPa 0,0 mm 3,4 km/h (1 Bft) SW 225 14,0 C 10,4 km/h (2 Bft)
08.08.2015 05:55 20,5 C 20,6 C 67 % 1013,7 hPa 0,0 mm 5,2 km/h (1 Bft) W 270 14,2 C 11,7 km/h (2 Bft)
08.08.2015 06:00 21,3 C 21,2 C 65 % 1013,7 hPa 0,0 mm 6,5 km/h (2 Bft) SW 225 14,4 C 21,2 km/h (4 Bft)
08.08.2015 06:05 21,4 C 21,3 C 64 % 1013,7 hPa 0,0 mm 7,3 km/h (2 Bft) W-NW 292 14,3 C 7,3 km/h (2 Bft)
08.08.2015 06:10 21,5 C 21,5 C 63 % 1013,7 hPa 0,0 mm 7,3 km/h (2 Bft) S-SO 157 14,2 C 7,3 km/h (2 Bft)
08.08.2015 06:15 21,2 C 21,4 C 62 % 1013,8 hPa 0,0 mm 4,7 km/h (1 Bft) S-SO 157 13,6 C 5,2 km/h (1 Bft)
08.08.2015 06:20 21,2 C 21,3 C 62 % 1013,8 hPa 0,0 mm 2,6 km/h (1 Bft) W-SW 247 13,6 C 3,4 km/h (1 Bft)
08.08.2015 06:25 21,1 C 21,3 C 62 % 1013,8 hPa 0,0 mm 2,6 km/h (1 Bft) SW 225 13,5 C 3,6 km/h (1 Bft)
08.08.2015 06:30 21,1 C 21,2 C 62 % 1013,8 hPa 0,0 mm 2,3 km/h (1 Bft) S 180 13,5 C 7,5 km/h (2 Bft)
08.08.2015 06:35 21,0 C 21,2 C 62 % 1014,1 hPa 0,0 mm 2,1 km/h (1 Bft) W 270 13,4 C 5,2 km/h (1 Bft)
08.08.2015 06:40 21,0 C 21,6 C 63 % 1014,1 hPa 0,0 mm 2,1 km/h (1 Bft) W-NW 292 13,7 C 4,1 km/h (1 Bft)
08.08.2015 06:45 20,8 C 21,8 C 63 % 1014,1 hPa 0,0 mm 1,6 km/h (1 Bft) O 90 13,5 C 0,0 km/h (0 Bft)
08.08.2015 06:50 20,5 C 22,3 C 64 % 1014,1 hPa 0,0 mm 0,3 km/h (0 Bft) O 90 13,5 C 0,0 km/h (0 Bft)
08.08.2015 06:55 20,4 C 22,8 C 64 % 1014,2 hPa 0,0 mm 0,0 km/h (0 Bft) NO 45 13,4 C 0,0 km/h (0 Bft)
08.08.2015 07:00 20,3 C 23,4 C 65 % 1014,2 hPa 0,0 mm 0,0 km/h (0 Bft) O 90 13,5 C 0,0 km/h (0 Bft)
08.08.2015 07:05 20,3 C 23,8 C 65 % 1014,2 hPa 0,0 mm 0,0 km/h (0 Bft) O-NO 67 13,5 C 0,0 km/h (0 Bft)
08.08.2015 07:10 20,5 C 24,4 C 66 % 1014,2 hPa 0,0 mm 0,0 km/h (0 Bft) SO 135 13,9 C 0,0 km/h (0 Bft)
08.08.2015 07:15 20,6 C 24,2 C 66 % 1014,3 hPa 0,0 mm 0,0 km/h (0 Bft) SO 135 14,0 C 0,0 km/h (0 Bft)
08.08.2015 07:20 20,7 C 23,6 C 66 % 1014,3 hPa 0,0 mm 0,0 km/h (0 Bft) O-NO 67 14,1 C 0,0 km/h (0 Bft)
08.08.2015 07:25 20,7 C 23,8 C 66 % 1014,3 hPa 0,0 mm 0,0 km/h (0 Bft) SO 135 14,1 C 0,0 km/h (0 Bft)
08.08.2015 07:30 20,8 C 25,0 C 66 % 1014,3 hPa 0,0 mm 0,0 km/h (0 Bft) O-SO 112 14,2 C 0,0 km/h (0 Bft)
08.08.2015 07:35 20,9 C 25,7 C 66 % 1014,2 hPa 0,0 mm 0,0 km/h (0 Bft) S-SO 157 14,3 C 0,0 km/h (0 Bft)
08.08.2015 07:40 21,4 C 27,6 C 66 % 1014,2 hPa 0,0 mm 0,0 km/h (0 Bft) O-SO 112 14,8 C 0,0 km/h (0 Bft)
08.08.2015 07:45 21,9 C 28,5 C 66 % 1014,2 hPa 0,0 mm 0,0 km/h (0 Bft) O-SO 112 15,3 C 0,0 km/h (0 Bft)
08.08.2015 07:50 23,0 C 29,8 C 64 % 1014,2 hPa 0,0 mm 0,0 km/h (0 Bft) O-SO 112 15,8 C 0,0 km/h (0 Bft)
08.08.2015 07:55 23,4 C 30,8 C 63 % 1014,1 hPa 0,0 mm 0,0 km/h (0 Bft) O-SO 112 15,9 C 0,0 km/h (0 Bft)
08.08.2015 08:00 23,7 C 32,1 C 61 % 1014,1 hPa 0,0 mm 0,0 km/h (0 Bft) S 180 15,7 C 0,0 km/h (0 Bft)
08.08.2015 08:05 23,7 C 31,6 C 62 % 1014,1 hPa 0,0 mm 0,5 km/h (0 Bft) O-NO 67 16,0 C 0,0 km/h (0 Bft)
08.08.2015 08:10 23,8 C 30,4 C 62 % 1014,1 hPa 0,0 mm 1,0 km/h (0 Bft) SW 225 16,1 C 0,0 km/h (0 Bft)
08.08.2015 08:15 24,0 C 31,0 C 61 % 1014,3 hPa 0,0 mm 0,5 km/h (0 Bft) NO 45 16,0 C 0,0 km/h (0 Bft)
08.08.2015 08:20 24,3 C 31,6 C 61 % 1014,3 hPa 0,0 mm 0,0 km/h (0 Bft) O-SO 112 16,3 C 0,0 km/h (0 Bft)
08.08.2015 08:25 24,2 C 32,1 C 60 % 1014,3 hPa 0,0 mm 0,0 km/h (0 Bft) NW 315 15,9 C 0,0 km/h (0 Bft)
08.08.2015 08:30 24,9 C 33,7 C 61 % 1014,3 hPa 0,0 mm 0,0 km/h (0 Bft) NW 315 16,8 C 0,0 km/h (0 Bft)
08.08.2015 08:35 25,2 C 34,3 C 60 % 1014,1 hPa 0,0 mm 0,0 km/h (0 Bft) NW 315 16,9 C 0,0 km/h (0 Bft)
08.08.2015 08:40 25,3 C 34,7 C 59 % 1014,1 hPa 0,0 mm 0,0 km/h (0 Bft) SO 135 16,7 C 0,0 km/h (0 Bft)
08.08.2015 08:45 25,3 C 35,4 C 59 % 1014,1 hPa 0,0 mm 0,0 km/h (0 Bft) O-SO 112 16,7 C 0,0 km/h (0 Bft)
08.08.2015 08:50 25,4 C 36,0 C 59 % 1014,1 hPa 0,0 mm 0,0 km/h (0 Bft) NO 45 16,8 C 0,0 km/h (0 Bft)
08.08.2015 08:55 25,3 C 36,5 C 58 % 1014,4 hPa 0,0 mm 0,0 km/h (0 Bft) O-NO 67 16,4 C 0,0 km/h (0 Bft)
08.08.2015 09:00 25,5 C 36,8 C 58 % 1014,4 hPa 0,0 mm 0,0 km/h (0 Bft) NO 45 16,6 C 0,0 km/h (0 Bft)
08.08.2015 09:05 25,8 C 36,9 C 58 % 1014,4 hPa 0,0 mm 0,3 km/h (0 Bft) S 180 16,9 C 4,4 km/h (1 Bft)
08.08.2015 09:10 26,5 C 36,4 C 56 % 1014,4 hPa 0,0 mm 0,5 km/h (0 Bft) NW 315 17,0 C 0,0 km/h (0 Bft)
08.08.2015 09:15 27,0 C 36,3 C 57 % 1014,8 hPa 0,0 mm 0,8 km/h (0 Bft) SO 135 17,7 C 0,0 km/h (0 Bft)
08.08.2015 09:16 27,1 C 36,9 C 54 % 1014,8 hPa 0,0 mm 0,3 km/h (0 Bft) SW 225 17,0 C 3,6 km/h (1 Bft)
08.08.2015 09:18 27,1 C 36,9 C 54 % 1014,8 hPa 0,0 mm 0,3 km/h (0 Bft) SW 225 17,0 C 3,6 km/h (1 Bft)
08.08.2015 09:20 27,1 C 36,9 C 54 % 1014,8 hPa 0,0 mm 0,3 km/h (0 Bft) SW 225 17,0 C 3,6 km/h (1 Bft)
08.08.2015 09:25 27,3 C 37,0 C 54 % 1014,8 hPa 0,0 mm 0,5 km/h (0 Bft) W 270 17,2 C 0,0 km/h (0 Bft)
08.08.2015 09:30 27,9 C 36,6 C 54 % 1014,8 hPa 0,0 mm 1,8 km/h (1 Bft) N 360 17,7 C 2,8 km/h (1 Bft)
08.08.2015 09:35 28,3 C 36,5 C 54 % 1014,9 hPa 0,0 mm 2,3 km/h (1 Bft) W-NW 292 18,1 C 5,4 km/h (1 Bft)
08.08.2015 09:40 28,6 C 35,8 C 52 % 1014,9 hPa 0,0 mm 4,4 km/h (1 Bft) W-NW 292 17,8 C 5,7 km/h (1 Bft)
08.08.2015 09:45 28,5 C 35,3 C 51 % 1014,9 hPa 0,0 mm 5,7 km/h (1 Bft) W 270 17,4 C 9,6 km/h (2 Bft)
08.08.2015 09:50 28,6 C 34,7 C 50 % 1014,9 hPa 0,0 mm 7,0 km/h (2 Bft) W-NW 292 17,1 C 10,6 km/h (2 Bft)
08.08.2015 09:55 28,5 C 34,0 C 50 % 1015,5 hPa 0,0 mm 8,3 km/h (2 Bft) W 270 17,0 C 15,8 km/h (3 Bft)
08.08.2015 10:00 28,3 C 33,3 C 49 % 1015,5 hPa 0,0 mm 9,1 km/h (2 Bft) W 270 16,5 C 8,3 km/h (2 Bft)
08.08.2015 10:05 28,4 C 33,3 C 50 % 1015,5 hPa 0,0 mm 9,3 km/h (2 Bft) W-SW 247 17,0 C 9,3 km/h (2 Bft)
08.08.2015 10:10 28,5 C 33,4 C 49 % 1015,5 hPa 0,0 mm 7,3 km/h (2 Bft) W-SW 247 16,7 C 15,3 km/h (3 Bft)
08.08.2015 10:15 28,4 C 33,3 C 49 % 1015,6 hPa 0,0 mm 6,2 km/h (2 Bft) NW 315 16,6 C 9,8 km/h (2 Bft)
08.08.2015 10:20 28,3 C 33,2 C 49 % 1015,6 hPa 0,0 mm 8,3 km/h (2 Bft) SW 225 16,5 C 22,5 km/h (4 Bft)
08.08.2015 10:25 28,2 C 33,1 C 49 % 1015,6 hPa 0,0 mm 8,8 km/h (2 Bft) W 270 16,5 C 6,0 km/h (2 Bft)
08.08.2015 10:30 28,5 C 33,3 C 49 % 1015,6 hPa 0,0 mm 8,0 km/h (2 Bft) NW 315 16,7 C 9,3 km/h (2 Bft)
08.08.2015 10:35 28,6 C 33,5 C 48 % 1015,7 hPa 0,0 mm 8,0 km/h (2 Bft) W 270 16,5 C 11,7 km/h (2 Bft)
08.08.2015 10:40 28,6 C 33,2 C 48 % 1015,7 hPa 0,0 mm 9,3 km/h (2 Bft) NW 315 16,5 C 8,0 km/h (2 Bft)
08.08.2015 10:45 28,8 C 33,5 C 48 % 1015,7 hPa 0,0 mm 8,3 km/h (2 Bft) N-NW 337 16,7 C 8,8 km/h (2 Bft)
08.08.2015 10:50 28,9 C 33,5 C 48 % 1015,7 hPa 0,0 mm 8,0 km/h (2 Bft) W 270 16,8 C 11,4 km/h (2 Bft)
08.08.2015 10:55 29,0 C 33,5 C 48 % 1015,5 hPa 0,0 mm 8,3 km/h (2 Bft) W 270 16,9 C 8,0 km/h (2 Bft)
08.08.2015 11:00 29,0 C 34,0 C 47 % 1015,5 hPa 0,0 mm 7,3 km/h (2 Bft) W-SW 247 16,5 C 10,9 km/h (2 Bft)
08.08.2015 11:05 29,0 C 34,1 C 47 % 1015,5 hPa 0,0 mm 7,0 km/h (2 Bft) W-NW 292 16,5 C 11,4 km/h (2 Bft)
08.08.2015 11:10 29,0 C 34,1 C 47 % 1015,5 hPa 0,0 mm 8,0 km/h (2 Bft) NW 315 16,5 C 8,8 km/h (2 Bft)
08.08.2015 11:15 29,2 C 33,6 C 47 % 1015,7 hPa 0,0 mm 8,5 km/h (2 Bft) W 270 16,7 C 4,1 km/h (1 Bft)
08.08.2015 11:20 29,5 C 33,9 C 47 % 1015,7 hPa 0,0 mm 8,3 km/h (2 Bft) W 270 17,0 C 9,8 km/h (2 Bft)
08.08.2015 11:25 29,5 C 34,0 C 47 % 1015,7 hPa 0,0 mm 7,0 km/h (2 Bft) NW 315 17,0 C 7,0 km/h (2 Bft)
08.08.2015 11:30 30,0 C 34,5 C 47 % 1015,7 hPa 0,0 mm 5,7 km/h (1 Bft) W-NW 292 17,4 C 6,7 km/h (2 Bft)
08.08.2015 11:35 30,0 C 35,0 C 47 % 1016,0 hPa 0,0 mm 4,9 km/h (1 Bft) W-NW 292 17,4 C 5,4 km/h (1 Bft)
08.08.2015 11:40 29,9 C 35,3 C 46 % 1016,0 hPa 0,0 mm 4,9 km/h (1 Bft) NO 45 17,0 C 2,8 km/h (1 Bft)
08.08.2015 11:45 30,1 C 35,5 C 46 % 1016,0 hPa 0,0 mm 5,2 km/h (1 Bft) NO 45 17,2 C 5,4 km/h (1 Bft)
08.08.2015 11:50 30,3 C 35,6 C 46 % 1016,0 hPa 0,0 mm 6,0 km/h (2 Bft) SW 225 17,4 C 13,7 km/h (3 Bft)
08.08.2015 11:55 29,9 C 34,7 C 46 % 1016,0 hPa 0,0 mm 8,0 km/h (2 Bft) W-SW 247 17,0 C 4,4 km/h (1 Bft)
08.08.2015 12:00 29,8 C 33,7 C 47 % 1016,0 hPa 0,0 mm 8,3 km/h (2 Bft) W 270 17,2 C 23,0 km/h (4 Bft)
08.08.2015 12:05 30,2 C 34,3 C 46 % 1016,0 hPa 0,0 mm 6,2 km/h (2 Bft) W 270 17,3 C 9,6 km/h (2 Bft)
08.08.2015 12:10 30,0 C 34,4 C 46 % 1016,0 hPa 0,0 mm 6,5 km/h (2 Bft) SW 225 17,1 C 3,9 km/h (1 Bft)
08.08.2015 12:15 29,5 C 33,5 C 46 % 1016,0 hPa 0,0 mm 6,0 km/h (2 Bft) NW 315 16,6 C 6,7 km/h (2 Bft)
08.08.2015 12:20 29,6 C 33,0 C 47 % 1016,0 hPa 0,0 mm 6,0 km/h (2 Bft) NW 315 17,1 C 6,0 km/h (2 Bft)
08.08.2015 12:25 29,4 C 32,4 C 47 % 1016,0 hPa 0,0 mm 5,7 km/h (1 Bft) W-NW 292 16,9 C 3,1 km/h (1 Bft)
08.08.2015 12:30 29,5 C 32,2 C 47 % 1016,0 hPa 0,0 mm 5,4 km/h (1 Bft) S-SW 202 17,0 C 3,1 km/h (1 Bft)
08.08.2015 12:35 30,2 C 33,7 C 47 % 1015,7 hPa 0,0 mm 5,4 km/h (1 Bft) W-SW 247 17,6 C 11,4 km/h (2 Bft)
08.08.2015 12:40 30,9 C 35,0 C 45 % 1015,7 hPa 0,0 mm 5,7 km/h (1 Bft) W 270 17,6 C 10,6 km/h (2 Bft)
08.08.2015 12:45 30,8 C 35,2 C 44 % 1015,7 hPa 0,0 mm 7,8 km/h (2 Bft) NW 315 17,1 C 8,5 km/h (2 Bft)
08.08.2015 12:50 31,3 C 36,0 C 43 % 1015,7 hPa 0,0 mm 9,1 km/h (2 Bft) NW 315 17,2 C 17,9 km/h (3 Bft)
08.08.2015 12:55 30,9 C 35,2 C 43 % 1015,7 hPa 0,0 mm 9,1 km/h (2 Bft) NW 315 16,8 C 20,5 km/h (4 Bft)
08.08.2015 13:00 30,8 C 34,5 C 43 % 1015,7 hPa 0,0 mm 11,4 km/h (2 Bft) NW 315 16,7 C 4,7 km/h (1 Bft)
08.08.2015 13:05 30,8 C 34,8 C 43 % 1015,7 hPa 0,0 mm 10,9 km/h (2 Bft) NW 315 16,7 C 8,8 km/h (2 Bft)
08.08.2015 13:10 31,0 C 35,2 C 42 % 1015,7 hPa 0,0 mm 8,8 km/h (2 Bft) W 270 16,6 C 25,6 km/h (4 Bft)
08.08.2015 13:15 31,3 C 36,0 C 42 % 1015,9 hPa 0,0 mm 7,5 km/h (2 Bft) NW 315 16,8 C 14,8 km/h (3 Bft)
08.08.2015 13:20 30,3 C 34,7 C 41 % 1015,9 hPa 0,0 mm 8,0 km/h (2 Bft) W 270 15,6 C 11,1 km/h (2 Bft)
08.08.2015 13:25 30,3 C 33,6 C 41 % 1015,9 hPa 0,0 mm 8,8 km/h (2 Bft) W-NW 292 15,6 C 9,3 km/h (2 Bft)
08.08.2015 13:30 31,2 C 34,2 C 40 % 1015,9 hPa 0,0 mm 9,1 km/h (2 Bft) NW 315 16,0 C 16,3 km/h (3 Bft)
08.08.2015 13:35 31,1 C 34,2 C 39 % 1015,9 hPa 0,0 mm 10,1 km/h (2 Bft) O-NO 67 15,5 C 10,9 km/h (2 Bft)
08.08.2015 13:40 30,3 C 32,8 C 40 % 1015,9 hPa 0,0 mm 11,4 km/h (2 Bft) N 360 15,2 C 10,6 km/h (2 Bft)
08.08.2015 13:45 30,6 C 32,6 C 41 % 1015,9 hPa 0,0 mm 10,4 km/h (2 Bft) W 270 15,8 C 12,4 km/h (3 Bft)
08.08.2015 13:50 31,2 C 33,6 C 41 % 1015,9 hPa 0,0 mm 10,1 km/h (2 Bft) NW 315 16,4 C 13,2 km/h (3 Bft)
08.08.2015 13:55 31,4 C 34,1 C 41 % 1015,6 hPa 0,0 mm 10,6 km/h (2 Bft) W 270 16,5 C 23,0 km/h (4 Bft)
08.08.2015 14:00 31,3 C 34,7 C 40 % 1015,6 hPa 0,0 mm 9,8 km/h (2 Bft) N-NW 337 16,1 C 17,9 km/h (3 Bft)
08.08.2015 14:05 31,0 C 34,7 C 40 % 1015,6 hPa 0,0 mm 8,3 km/h (2 Bft) W-SW 247 15,8 C 5,7 km/h (1 Bft)
08.08.2015 14:10 30,6 C 33,8 C 42 % 1015,6 hPa 0,0 mm 6,5 km/h (2 Bft) W-SW 247 16,2 C 7,0 km/h (2 Bft)
08.08.2015 14:15 30,2 C 33,3 C 42 % 1015,4 hPa 0,0 mm 4,4 km/h (1 Bft) NW 315 15,8 C 4,9 km/h (1 Bft)
08.08.2015 14:20 30,5 C 33,4 C 42 % 1015,4 hPa 0,0 mm 4,1 km/h (1 Bft) W-NW 292 16,1 C 8,5 km/h (2 Bft)
08.08.2015 14:25 30,7 C 34,6 C 41 % 1015,4 hPa 0,0 mm 4,4 km/h (1 Bft) W-NW 292 15,9 C 4,9 km/h (1 Bft)
08.08.2015 14:30 30,8 C 34,9 C 41 % 1015,4 hPa 0,0 mm 3,6 km/h (1 Bft) SO 135 16,0 C 2,6 km/h (1 Bft)
08.08.2015 14:35 31,3 C 35,9 C 41 % 1015,2 hPa 0,0 mm 4,1 km/h (1 Bft) W 270 16,4 C 23,0 km/h (4 Bft)
08.08.2015 14:40 31,4 C 35,8 C 40 % 1015,2 hPa 0,0 mm 7,3 km/h (2 Bft) NW 315 16,1 C 8,0 km/h (2 Bft)
08.08.2015 14:45 31,3 C 35,9 C 39 % 1015,2 hPa 0,0 mm 8,5 km/h (2 Bft) W-NW 292 15,7 C 8,3 km/h (2 Bft)
08.08.2015 14:50 31,4 C 36,3 C 39 % 1015,2 hPa 0,0 mm 5,4 km/h (1 Bft) NW 315 15,7 C 7,0 km/h (2 Bft)
08.08.2015 14:55 31,8 C 36,7 C 39 % 1014,9 hPa 0,0 mm 4,9 km/h (1 Bft) W-SW 247 16,1 C 2,8 km/h (1 Bft)
08.08.2015 15:00 31,9 C 37,5 C 39 % 1014,9 hPa 0,0 mm 3,9 km/h (1 Bft) NW 315 16,2 C 0,0 km/h (0 Bft)
08.08.2015 15:05 31,4 C 36,7 C 39 % 1014,9 hPa 0,0 mm 2,6 km/h (1 Bft) NW 315 15,7 C 3,4 km/h (1 Bft)
08.08.2015 15:10 31,5 C 35,9 C 39 % 1014,9 hPa 0,0 mm 4,1 km/h (1 Bft) W-NW 292 15,8 C 11,1 km/h (2 Bft)
08.08.2015 15:15 31,3 C 35,2 C 41 % 1014,8 hPa 0,0 mm 6,0 km/h (2 Bft) NW 315 16,4 C 7,0 km/h (2 Bft)
08.08.2015 15:16 31,7 C 35,9 C 40 % 1014,8 hPa 0,0 mm 7,3 km/h (2 Bft) W-NW 292 16,4 C 6,7 km/h (2 Bft)
08.08.2015 15:19 31,7 C 35,9 C 40 % 1014,8 hPa 0,0 mm 7,3 km/h (2 Bft) W-NW 292 16,4 C 6,7 km/h (2 Bft)
08.08.2015 15:25 31,9 C 36,2 C 40 % 1014,8 hPa 0,0 mm 7,3 km/h (2 Bft) NW 315 16,6 C 8,0 km/h (2 Bft)
08.08.2015 15:30 31,9 C 36,5 C 39 % 1014,8 hPa 0,0 mm 6,7 km/h (2 Bft) W-NW 292 16,2 C 12,9 km/h (3 Bft)
08.08.2015 15:35 32,0 C 36,5 C 39 % 1014,7 hPa 0,0 mm 7,3 km/h (2 Bft) W-NW 292 16,3 C 9,6 km/h (2 Bft)
08.08.2015 15:40 31,8 C 36,0 C 39 % 1014,7 hPa 0,0 mm 9,8 km/h (2 Bft) NO 45 16,1 C 17,3 km/h (3 Bft)
08.08.2015 15:45 31,6 C 35,6 C 38 % 1014,7 hPa 0,0 mm 10,6 km/h (2 Bft) N-NO 22 15,5 C 13,7 km/h (3 Bft)
08.08.2015 15:50 31,7 C 35,4 C 39 % 1014,7 hPa 0,0 mm 9,6 km/h (2 Bft) NW 315 16,0 C 10,6 km/h (2 Bft)
08.08.2015 15:55 31,8 C 35,6 C 39 % 1014,5 hPa 0,0 mm 7,8 km/h (2 Bft) W 270 16,1 C 6,0 km/h (2 Bft)
08.08.2015 16:00 32,0 C 36,3 C 39 % 1014,5 hPa 0,0 mm 5,2 km/h (1 Bft) N-NW 337 16,3 C 4,9 km/h (1 Bft)
08.08.2015 16:05 32,1 C 36,6 C 39 % 1014,5 hPa 0,0 mm 4,7 km/h (1 Bft) W 270 16,4 C 9,1 km/h (2 Bft)
08.08.2015 16:10 31,6 C 36,0 C 38 % 1014,5 hPa 0,0 mm 7,5 km/h (2 Bft) NW 315 15,5 C 9,6 km/h (2 Bft)
08.08.2015 16:15 31,3 C 36,0 C 38 % 1014,5 hPa 0,0 mm 7,5 km/h (2 Bft) O 90 15,3 C 8,3 km/h (2 Bft)
08.08.2015 16:20 31,0 C 36,0 C 38 % 1014,5 hPa 0,0 mm 6,5 km/h (2 Bft) NW 315 15,0 C 8,5 km/h (2 Bft)
08.08.2015 16:25 30,8 C 36,0 C 39 % 1014,5 hPa 0,0 mm 6,7 km/h (2 Bft) W 270 15,2 C 8,8 km/h (2 Bft)
08.08.2015 16:30 30,5 C 36,1 C 39 % 1014,5 hPa 0,0 mm 5,7 km/h (1 Bft) N 360 15,0 C 4,1 km/h (1 Bft)
08.08.2015 16:35 30,3 C 36,4 C 39 % 1014,3 hPa 0,0 mm 3,4 km/h (1 Bft) SW 225 14,8 C 0,0 km/h (0 Bft)
08.08.2015 16:40 30,3 C 37,0 C 39 % 1014,3 hPa 0,0 mm 2,6 km/h (1 Bft) W-NW 292 14,8 C 11,9 km/h (2 Bft)
08.08.2015 16:45 30,2 C 36,7 C 39 % 1014,3 hPa 0,0 mm 4,4 km/h (1 Bft) W 270 14,7 C 6,5 km/h (2 Bft)
08.08.2015 16:50 30,2 C 36,2 C 39 % 1014,3 hPa 0,0 mm 4,9 km/h (1 Bft) W 270 14,7 C 6,0 km/h (2 Bft)
08.08.2015 16:55 30,2 C 35,1 C 39 % 1014,5 hPa 0,0 mm 3,9 km/h (1 Bft) W-NW 292 14,7 C 8,3 km/h (2 Bft)
08.08.2015 17:00 30,2 C 33,8 C 39 % 1014,5 hPa 0,0 mm 3,9 km/h (1 Bft) W-NW 292 14,7 C 4,1 km/h (1 Bft)
08.08.2015 17:05 30,2 C 33,3 C 39 % 1014,5 hPa 0,0 mm 3,6 km/h (1 Bft) N 360 14,7 C 7,3 km/h (2 Bft)
08.08.2015 17:10 30,3 C 32,7 C 39 % 1014,5 hPa 0,0 mm 4,9 km/h (1 Bft) W 270 14,8 C 11,9 km/h (2 Bft)
08.08.2015 17:15 30,2 C 32,2 C 39 % 1014,3 hPa 0,0 mm 6,0 km/h (2 Bft) W-SW 247 14,7 C 6,7 km/h (2 Bft)
08.08.2015 17:20 30,2 C 32,1 C 40 % 1014,3 hPa 0,0 mm 6,2 km/h (2 Bft) NW 315 15,1 C 8,8 km/h (2 Bft)
08.08.2015 17:25 30,1 C 31,9 C 40 % 1014,3 hPa 0,0 mm 6,2 km/h (2 Bft) NW 315 15,0 C 4,7 km/h (1 Bft)
08.08.2015 17:30 30,1 C 32,0 C 39 % 1014,3 hPa 0,0 mm 4,7 km/h (1 Bft) O-NO 67 14,6 C 5,7 km/h (1 Bft)
08.08.2015 17:35 30,0 C 32,0 C 38 % 1014,2 hPa 0,0 mm 3,4 km/h (1 Bft) O 90 14,1 C 0,0 km/h (0 Bft)
08.08.2015 17:40 30,0 C 32,1 C 39 % 1014,2 hPa 0,0 mm 4,1 km/h (1 Bft) W-SW 247 14,5 C 6,7 km/h (2 Bft)
08.08.2015 17:45 30,0 C 32,0 C 39 % 1014,2 hPa 0,0 mm 4,1 km/h (1 Bft) NW 315 14,5 C 5,2 km/h (1 Bft)
08.08.2015 17:50 30,0 C 31,8 C 40 % 1014,2 hPa 0,0 mm 4,9 km/h (1 Bft) W 270 14,9 C 5,7 km/h (1 Bft)
08.08.2015 17:55 30,0 C 31,7 C 41 % 1014,2 hPa 0,0 mm 4,7 km/h (1 Bft) W-NW 292 15,3 C 4,9 km/h (1 Bft)
08.08.2015 18:00 30,0 C 31,7 C 39 % 1014,2 hPa 0,0 mm 4,7 km/h (1 Bft) W 270 14,5 C 7,3 km/h (2 Bft)
08.08.2015 18:05 30,0 C 31,8 C 39 % 1014,2 hPa 0,0 mm 3,9 km/h (1 Bft) O-NO 67 14,5 C 6,5 km/h (2 Bft)
08.08.2015 18:10 29,8 C 31,8 C 39 % 1014,2 hPa 0,0 mm 4,4 km/h (1 Bft) O-NO 67 14,3 C 3,9 km/h (1 Bft)
08.08.2015 18:15 29,8 C 31,8 C 40 % 1014,1 hPa 0,0 mm 4,1 km/h (1 Bft) O-NO 67 14,7 C 9,1 km/h (2 Bft)
08.08.2015 18:20 29,1 C 31,4 C 43 % 1014,1 hPa 0,0 mm 3,6 km/h (1 Bft) O 90 15,2 C 0,0 km/h (0 Bft)
08.08.2015 18:25 29,1 C 31,2 C 45 % 1014,1 hPa 0,0 mm 2,8 km/h (1 Bft) SO 135 15,9 C 0,0 km/h (0 Bft)
08.08.2015 18:30 29,1 C 31,2 C 44 % 1014,1 hPa 0,0 mm 1,8 km/h (1 Bft) W-SW 247 15,6 C 0,0 km/h (0 Bft)
08.08.2015 18:35 29,1 C 31,4 C 46 % 1014,2 hPa 0,0 mm 2,1 km/h (1 Bft) NW 315 16,3 C 2,8 km/h (1 Bft)
08.08.2015 18:40 29,1 C 31,6 C 47 % 1014,2 hPa 0,0 mm 0,3 km/h (0 Bft) N-NO 22 16,6 C 0,0 km/h (0 Bft)
08.08.2015 18:45 29,0 C 31,6 C 47 % 1014,2 hPa 0,0 mm 0,5 km/h (0 Bft) O-NO 67 16,5 C 2,8 km/h (1 Bft)
08.08.2015 18:50 28,7 C 31,1 C 47 % 1014,2 hPa 0,0 mm 0,8 km/h (0 Bft) O-SO 112 16,3 C 0,0 km/h (0 Bft)
08.08.2015 18:55 28,4 C 30,7 C 48 % 1014,1 hPa 0,0 mm 1,0 km/h (0 Bft) N-NW 337 16,3 C 0,0 km/h (0 Bft)
08.08.2015 19:00 28,1 C 30,2 C 48 % 1014,1 hPa 0,0 mm 1,0 km/h (0 Bft) SW 225 16,0 C 0,0 km/h (0 Bft)
08.08.2015 19:05 27,9 C 29,8 C 49 % 1014,1 hPa 0,0 mm 0,8 km/h (0 Bft) N-NO 22 16,2 C 0,0 km/h (0 Bft)
08.08.2015 19:10 27,4 C 29,5 C 50 % 1014,1 hPa 0,0 mm 0,3 km/h (0 Bft) W-NW 292 16,0 C 0,0 km/h (0 Bft)
08.08.2015 19:15 27,2 C 29,2 C 50 % 1014,3 hPa 0,0 mm 0,3 km/h (0 Bft) N-NW 337 15,9 C 0,0 km/h (0 Bft)
08.08.2015 19:20 27,1 C 28,8 C 50 % 1014,3 hPa 0,0 mm 0,5 km/h (0 Bft) NO 45 15,8 C 0,0 km/h (0 Bft)
08.08.2015 19:25 26,9 C 28,7 C 50 % 1014,3 hPa 0,0 mm 0,5 km/h (0 Bft) N-NO 22 15,6 C 3,6 km/h (1 Bft)
08.08.2015 19:30 26,8 C 29,2 C 50 % 1014,3 hPa 0,0 mm 0,3 km/h (0 Bft) NW 315 15,5 C 0,0 km/h (0 Bft)
08.08.2015 19:35 26,3 C 29,3 C 50 % 1014,3 hPa 0,0 mm 0,5 km/h (0 Bft) SO 135 15,0 C 2,6 km/h (1 Bft)
08.08.2015 19:40 25,8 C 27,8 C 50 % 1014,3 hPa 0,0 mm 3,9 km/h (1 Bft) O 90 14,6 C 6,2 km/h (2 Bft)
08.08.2015 19:45 25,2 C 26,9 C 51 % 1014,3 hPa 0,0 mm 6,0 km/h (2 Bft) N-NO 22 14,3 C 9,1 km/h (2 Bft)
08.08.2015 19:50 24,6 C 25,7 C 52 % 1014,3 hPa 0,0 mm 4,4 km/h (1 Bft) N-NW 337 14,1 C 14,0 km/h (3 Bft)
08.08.2015 19:55 24,3 C 25,0 C 53 % 1015,1 hPa 0,0 mm 3,6 km/h (1 Bft) NW 315 14,1 C 5,2 km/h (1 Bft)
08.08.2015 20:00 23,5 C 24,3 C 55 % 1015,1 hPa 0,0 mm 5,2 km/h (1 Bft) N 360 13,9 C 6,7 km/h (2 Bft)
08.08.2015 20:05 23,2 C 23,6 C 58 % 1015,1 hPa 0,0 mm 6,5 km/h (2 Bft) NO 45 14,5 C 14,0 km/h (3 Bft)
08.08.2015 20:10 22,8 C 23,2 C 59 % 1015,1 hPa 0,0 mm 6,2 km/h (2 Bft) O 90 14,4 C 3,4 km/h (1 Bft)
08.08.2015 20:15 22,6 C 23,1 C 60 % 1015,3 hPa 0,0 mm 5,2 km/h (1 Bft) O-NO 67 14,4 C 2,8 km/h (1 Bft)
08.08.2015 20:20 22,4 C 22,8 C 62 % 1015,3 hPa 0,0 mm 4,7 km/h (1 Bft) N-NO 22 14,8 C 9,6 km/h (2 Bft)
08.08.2015 20:25 22,3 C 22,7 C 61 % 1015,3 hPa 0,0 mm 4,9 km/h (1 Bft) NW 315 14,4 C 4,1 km/h (1 Bft)
08.08.2015 20:30 22,1 C 22,4 C 61 % 1015,3 hPa 0,0 mm 4,1 km/h (1 Bft) W-NW 292 14,2 C 9,3 km/h (2 Bft)
08.08.2015 20:35 21,9 C 22,1 C 63 % 1015,3 hPa 0,0 mm 4,1 km/h (1 Bft) N-NO 22 14,5 C 7,5 km/h (2 Bft)
08.08.2015 20:40 21,7 C 21,7 C 63 % 1015,3 hPa 0,0 mm 4,9 km/h (1 Bft) NW 315 14,3 C 0,0 km/h (0 Bft)
08.08.2015 20:45 21,4 C 21,4 C 65 % 1015,3 hPa 0,0 mm 5,2 km/h (1 Bft) SO 135 14,5 C 9,3 km/h (2 Bft)
08.08.2015 20:50 21,2 C 21,2 C 65 % 1015,3 hPa 0,0 mm 3,9 km/h (1 Bft) N 360 14,4 C 12,2 km/h (2 Bft)
08.08.2015 20:55 21,5 C 21,3 C 65 % 1015,9 hPa 0,0 mm 5,4 km/h (1 Bft) O-SO 112 14,6 C 7,8 km/h (2 Bft)
08.08.2015 21:00 21,2 C 21,1 C 64 % 1015,9 hPa 0,0 mm 5,7 km/h (1 Bft) N-NO 22 14,1 C 0,0 km/h (0 Bft)
08.08.2015 21:05 20,8 C 20,8 C 64 % 1015,9 hPa 0,0 mm 2,6 km/h (1 Bft) N 360 13,7 C 3,6 km/h (1 Bft)
08.08.2015 21:10 20,4 C 20,4 C 65 % 1015,9 hPa 0,0 mm 0,8 km/h (0 Bft) N-NW 337 13,6 C 5,2 km/h (1 Bft)
08.08.2015 21:15 20,7 C 20,6 C 65 % 1015,6 hPa 0,0 mm 2,1 km/h (1 Bft) NW 315 13,9 C 0,0 km/h (0 Bft)
08.08.2015 21:16 20,5 C 20,4 C 66 % 1015,6 hPa 0,0 mm 3,4 km/h (1 Bft) W-NW 292 13,9 C 3,4 km/h (1 Bft)
08.08.2015 21:20 20,5 C 20,4 C 66 % 1015,6 hPa 0,0 mm 3,4 km/h (1 Bft) W-NW 292 13,9 C 3,4 km/h (1 Bft)
08.08.2015 21:25 20,1 C 20,1 C 65 % 1015,6 hPa 0,0 mm 2,1 km/h (1 Bft) S-SW 202 13,3 C 5,2 km/h (1 Bft)
08.08.2015 21:30 19,9 C 19,8 C 68 % 1015,6 hPa 0,0 mm 2,3 km/h (1 Bft) SO 135 13,8 C 0,0 km/h (0 Bft)
08.08.2015 21:35 19,6 C 19,5 C 68 % 1015,5 hPa 0,0 mm 2,3 km/h (1 Bft) W-NW 292 13,5 C 4,1 km/h (1 Bft)
08.08.2015 21:40 19,7 C 19,5 C 68 % 1015,5 hPa 0,0 mm 2,3 km/h (1 Bft) S-SW 202 13,6 C 7,3 km/h (2 Bft)
08.08.2015 21:45 19,8 C 19,6 C 68 % 1015,5 hPa 0,0 mm 4,1 km/h (1 Bft) SW 225 13,7 C 3,4 km/h (1 Bft)
08.08.2015 21:50 19,5 C 19,4 C 68 % 1015,5 hPa 0,0 mm 3,4 km/h (1 Bft) W-SW 247 13,4 C 6,7 km/h (2 Bft)
08.08.2015 21:55 19,5 C 19,3 C 68 % 1015,0 hPa 0,0 mm 2,8 km/h (1 Bft) S-SO 157 13,4 C 0,0 km/h (0 Bft)
08.08.2015 22:00 19,3 C 19,1 C 68 % 1015,0 hPa 0,0 mm 2,8 km/h (1 Bft) O-SO 112 13,2 C 0,0 km/h (0 Bft)
08.08.2015 22:05 19,2 C 19,0 C 68 % 1015,0 hPa 0,0 mm 1,0 km/h (0 Bft) O-SO 112 13,1 C 0,0 km/h (0 Bft)
08.08.2015 22:10 19,2 C 19,0 C 68 % 1015,0 hPa 0,0 mm 0,5 km/h (0 Bft) NW 315 13,1 C 0,0 km/h (0 Bft)
08.08.2015 22:15 18,9 C 18,8 C 68 % 1014,9 hPa 0,0 mm 0,3 km/h (0 Bft) SO 135 12,9 C 0,0 km/h (0 Bft)
08.08.2015 22:20 18,8 C 18,6 C 68 % 1014,9 hPa 0,0 mm 0,3 km/h (0 Bft) S-SW 202 12,8 C 2,6 km/h (1 Bft)
08.08.2015 22:25 18,9 C 18,7 C 69 % 1014,9 hPa 0,0 mm 0,8 km/h (0 Bft) W-NW 292 13,1 C 0,0 km/h (0 Bft)
08.08.2015 22:30 19,0 C 18,8 C 69 % 1014,9 hPa 0,0 mm 2,3 km/h (1 Bft) O 90 13,2 C 0,0 km/h (0 Bft)
08.08.2015 22:35 18,7 C 18,6 C 69 % 1014,6 hPa 0,0 mm 1,8 km/h (1 Bft) NO 45 12,9 C 0,0 km/h (0 Bft)
08.08.2015 22:40 18,6 C 18,4 C 70 % 1014,6 hPa 0,0 mm 0,5 km/h (0 Bft) SW 225 13,0 C 2,6 km/h (1 Bft)
08.08.2015 22:45 18,6 C 18,4 C 70 % 1014,6 hPa 0,0 mm 1,0 km/h (0 Bft) SW 225 13,0 C 5,4 km/h (1 Bft)
08.08.2015 22:50 18,5 C 18,3 C 71 % 1014,6 hPa 0,0 mm 2,1 km/h (1 Bft) S 180 13,1 C 5,2 km/h (1 Bft)
08.08.2015 22:55 18,5 C 18,3 C 72 % 1014,4 hPa 0,0 mm 2,1 km/h (1 Bft) S-SO 157 13,4 C 0,0 km/h (0 Bft)
08.08.2015 23:00 18,6 C 18,4 C 71 % 1014,4 hPa 0,0 mm 1,6 km/h (1 Bft) O-NO 67 13,2 C 0,0 km/h (0 Bft)
08.08.2015 23:05 18,4 C 18,2 C 72 % 1014,4 hPa 0,0 mm 1,3 km/h (1 Bft) O-SO 112 13,3 C 3,6 km/h (1 Bft)
08.08.2015 23:10 18,9 C 18,6 C 71 % 1014,4 hPa 0,0 mm 1,3 km/h (1 Bft) W 270 13,5 C 6,7 km/h (2 Bft)
08.08.2015 23:15 18,7 C 18,5 C 70 % 1014,6 hPa 0,0 mm 1,3 km/h (1 Bft) W-SW 247 13,1 C 0,0 km/h (0 Bft)
08.08.2015 23:20 18,5 C 18,4 C 70 % 1014,6 hPa 0,0 mm 1,6 km/h (1 Bft) SW 225 12,9 C 0,0 km/h (0 Bft)
08.08.2015 23:25 18,4 C 18,3 C 70 % 1014,6 hPa 0,0 mm 1,8 km/h (1 Bft) N-NO 22 12,8 C 0,0 km/h (0 Bft)
08.08.2015 23:30 18,2 C 18,1 C 70 % 1014,6 hPa 0,0 mm 0,8 km/h (0 Bft) S 180 12,6 C 0,0 km/h (0 Bft)
08.08.2015 23:35 17,9 C 17,8 C 70 % 1014,7 hPa 0,0 mm 0,3 km/h (0 Bft) NO 45 12,3 C 0,0 km/h (0 Bft)
08.08.2015 23:40 17,9 C 17,7 C 73 % 1014,7 hPa 0,0 mm 1,3 km/h (1 Bft) N-NO 22 13,0 C 8,8 km/h (2 Bft)
08.08.2015 23:45 18,2 C 18,0 C 73 % 1014,7 hPa 0,0 mm 3,6 km/h (1 Bft) W-SW 247 13,3 C 6,0 km/h (2 Bft)
08.08.2015 23:50 18,1 C 17,9 C 72 % 1014,7 hPa 0,0 mm 3,9 km/h (1 Bft) S 180 13,0 C 5,2 km/h (1 Bft)
08.08.2015 23:55 18,0 C 17,8 C 74 % 1014,9 hPa 0,0 mm 3,1 km/h (1 Bft) N-NO 22 13,3 C 7,5 km/h (2 Bft)
_ Min-Zeit 03:25 03:25 17:35 02:50 - 09:00 - - 23:35 23:35
Minimum _ 17,3 C 17,2 C 38 % 1012,4 hPa - 0,0 km/h (0 Bft) - - 12,3 C 0,0 km/h (0 Bft)
_ Max-Zeit 16:05 15:00 03:35 12:30 23:55 13:40 - - 09:35 13:10
Maximum _ 32,1 C 37,5 C 76 % 1016,0 hPa 0,0 mm 11,4 km/h
N (2 Bft)
- - 18,1 C 25,6 km/h
W (4 Bft)
Durchschnitt _ 24,3 C 26,8 C 57 % 1014,4 hPa #0,0 mm 3,4 km/h (1 Bft) NW - 14,8 C 4,8 km/h (1 Bft)